COSMOS 1275 DEB, 14627

Orbit data source: Space-Track

COSMOS 1275 DEB, 14627 is space debris in LEO originally from a launch on Thu, 04 Jun 1981 UTC launched from the Plesetsk Missile And Space Complex (PKMTR). Debris objects in space refer to the collection of defunct objects orbiting the Earth. Examples of debris include non-operational satellites, rocket bodies, and fragments generated from explosions, collisions, or faulty payload assembly.

Loading next visibility...
Identifier
14627, 1981-053JQ
Orbit
LEO
Country
Flag of CISCIS
Related business
Manufacturer
Unknown
Mission
Spacecraft
Bus & Motor
Unknown
Mass
Unknown
Launch date (UTC)
1981-06-04 (44 years ago)
Launch vehicle
Unknown
Launch site
Plesetsk Missile And Space Complex (PKMTR)
Object type
Payload
Rocket body
Debris
Shape & HBR
Unknown shape, 0.1 m
Radar Cross Section
Small (<0.1 m²)

Expand to show TLE details & history
Last TLE update: 1 day ago

TLE from 1 day ago
0 COSMOS 1275 DEB
1 14627U 81053JQ  25301.78523022  .00003094  00000-0  18358-2 0  9990
2 14627  82.7814 230.8214 0038034 327.5623  61.4342 14.06909641128885
Epoch: 2025-10-28T18:50Z
TLE epoch observation values (Epoch: 2025-10-28T18:50:43.891Z)
Latitude
29.17214°
Longitude
-85.19606°
Altitude
860.51 km
Speed
7.432 km/s
True Right ascension
15h 39m 25s
True Declination
29° 01' 41"
Sunlit
Object was in daylight at epoch
Visualization orbit readout
Latitude
Unknown
Longitude
Unknown
Altitude
Unknown
Speed
Unknown
Apparent Right ascension
Unknown
Apparent Declination
Unknown
Sunlit
N/A
Visualization observer readout
Local Sidereal Time
21:30:18
Azimuth
Unknown
Elevation
Unknown
Doppler factor
Unknown
Orbital elements
Apogee altitude
894.634 km
Perigee altitude
839.521 km
Semi-major axis
7,245.214 km
Eccentricity
0.0038
Inclination
82.7814°
RAAN
230.8214°
Arg. of periapsis
327.5623°
True anomaly
61.81785°
Mean anomaly
61.4342°
Eccentric anomaly
61.62594°
Mean motion
3.51938 °/min
Orbital period
102.29 mins
BSTAR
0.0018358
Loading maneuver chart data...
Computing Atmospheric mass density...
Loading historical data...
Loading historical data...
Loading historical data...
Loading historical data...
Loading historical data...
Loading historical data...
Loading historical data...

Documentation

Showing up to 5 results
|